This is the latest recevied weather packets stored in our database for station/object kj4yre. If no packets are shown the sender has not sent any weather packets the latest 10 day(s).
| Time | Temp. | Humidity | Pressure | Rain* | Wind** | Luminosity | Snow |
|---|---|---|---|---|---|---|---|
| 1777821737 | 13.89° C | 41% | 1019.2 hPa | 0 mm | - | - | - |
| 1777821436 | 13.89° C | 43% | 1019.3 hPa | 0 mm | - | - | - |
| 1777820836 | 13.89° C | 43% | 1019.2 hPa | 0 mm | - | - | - |
| 1777819935 | 12.78° C | 40% | 1019.2 hPa | 0 mm | - | - | - |
| 1777818737 | 12.22° C | 43% | 1019.1 hPa | 0 mm | - | - | - |
| 1777816335 | 11.67° C | 47% | 1019.2 hPa | 0 mm | - | - | - |
| 1777816036 | 11.11° C | 47% | 1019.1 hPa | 0 mm | - | - | - |
| 1777813336 | 10.56° C | 56% | 1019 hPa | 0 mm | - | - | - |
| 1777812136 | 9.44° C | 58% | 1019 hPa | 0 mm | - | - | - |
| 1777811536 | 9.44° C | 61% | 1018.9 hPa | 0 mm | - | - | - |
| 1777809437 | 8.33° C | 68% | 1018.6 hPa | 0 mm | - | - | - |
| 1777808835 | 7.78° C | 68% | 1018.4 hPa | 0 mm | - | - | - |
| 1777808536 | 7.78° C | 69% | 1018.4 hPa | 0 mm | - | - | - |
| 1777807936 | 7.78° C | 70% | 1018.3 hPa | 0 mm | - | - | - |
| 1777804935 | 7.22° C | 71% | 1017.5 hPa | 0 mm | - | - | - |
| 1777804636 | 7.22° C | 70% | 1017.4 hPa | 0 mm | - | - | - |
| 1777804335 | 7.22° C | 69% | 1017.2 hPa | 0 mm | - | - | - |
| 1777802836 | 8.33° C | 66% | 1016.6 hPa | 0 mm | - | - | - |
| 1777802537 | 8.33° C | 66% | 1016.6 hPa | 0 mm | - | - | - |
| 1777801935 | 8.33° C | 66% | 1016.3 hPa | 0 mm | - | - | - |
| 1777801335 | 8.33° C | 65% | 1016.1 hPa | 0 mm | - | - | - |
| 1777799836 | 8.89° C | 63% | 1015.9 hPa | 0 mm | - | - | - |
| 1777799236 | 8.89° C | 62% | 1015.9 hPa | 0 mm | - | - | - |
| 1777798337 | 9.44° C | 63% | 1015.7 hPa | 0 mm | - | - | - |
| 1777797435 | 9.44° C | 64% | 1015.5 hPa | 0 mm | - | - | - |
* Rain latest hour (hover to see other rain measurements)
** Current wind speed in m/s (hover to see current wind gust speed)